星链-1879 (STARLINK-1879 )

导读 | 豆包AI

STARLINK-1879是美国太空探索技术公司(SpaceX)星链(Starlink)星座的组网卫星,于2020年11月25日发射入轨。星链星座旨在构建全球卫星互联网,为全球范围用户提供高速宽带网络服务,该卫星运行在近地轨道,是星链大规模低轨星座部署中的一颗,承担着全球通信覆盖的组网任务,推动了低轨卫星通信系统的建设。

基本信息
目录编号:
47164
目录名称:
STARLINK-1879
国际标识:
2020-088AU
轨道中心:
EARTH
卫星名称:
星链-1879
卫星全名:
星链-1879 (STARLINK-1879 )
卫星状态:
已陨落 最后检测时间 2025-04-05
发射日期:
2020-11-25 UTC
国别 :
美国 (US)
星等 :
--
轨道信息
数据来源 国际轨道数据
星历时间: 2025-04-05T23:44:29+0800
轨道信息已过期389天
半长轴: 6546.131km
偏心率: 0.000888
轨道倾角: 53.009°
近地点辐角 257.801°
升交点赤经 303.528°
平近点角 213.431°
近地点: 162.183km
远地点: 173.809km
周期: 87.849分钟
每日圈数: 16.391767
详细信息
固有亮度:
5
最大亮度:
2.5
卫星平台:
Starlink V1.0
覆盖范围:
全球
运营商:
太空探索技术公司
运营商所在国:
美国
制造商(研发单位):
太空探索技术公司
制造商所在国:
美国
使用方式:
暂无
卫星简介
星链(Starlink)计划是由太空探索技术公司(SpaceX)提出的一个巨型低轨卫星互联网星座项目,计划在2019年至2024年间在太空搭建由约1.2万颗卫星组成的“星链”网络,其中1584颗将部署在地球上空550千米处的近地轨道,并从2020年开始工作。该卫星仍在工作。